DECAYED

STARLINK-1476, 45753 (Decayed)

Orbit data source: Space-Track

STARLINK-1476, 45753 was a payload satellite owned by SpaceX/Seattle (US) in LEO that was launched on Sat, 13 Jun 2020 UTC via an FALCON 9 launch vehicle from the Air Force Eastern Test Range (AFETR). Payload-class satellites include a variety of spacecraft equipped with specific instruments for various scientific and technological missions. These include communications satellites like Starlink; space stations such as the ISS; scientific satellites like the Hubble; Earth observation satellites from companies like Planet Labs, Umbra, and HawkEye 360; GPS; miniature CubeSats for education and research; and military/defense satellites.

Not visible in the next 10 days
Identifier
45753, 2020-038Z
Orbit
Decayed
Country
Flag of USUS
Related business
Manufacturer
SpaceX/Seattle
Mission
Decayed Commercial Communications
Bus & Motor
STARLINK, Unknown motor
Mass
260 kg wet, ~248 kg dry
Launch date (UTC)
2020-06-13 (6 years ago)
Launch vehicle
FALCON 9
Launch site
Air Force Eastern Test Range (AFETR)
Object type
Payload
Rocket body
Debris
Shape & HBR
Box + 1 Pan, 10.1 m
Radar Cross Section
13.562 m², Large (>1 m²)

Expand to show TLE details & history
Last TLE update: 11 months ago

TLE from 11 months ago
0 STARLINK-1476
1 45753U 20038Z   25253.33203747  .11628326  12385-4  32197-3 0  9990
2 45753  53.0048 205.4793 0009499 225.9018 134.1249 16.44771939290707
Epoch: 2025-09-10T07:58Z
TLE epoch observation values (Epoch: 2025-09-10T07:58:08.037Z)
Latitude
-0.00002°
Longitude
96.33582°
Altitude
158.388 km
Speed
7.81 km/s
True Right ascension
13h 41m 55s
True Declination
0° 00' 00"
Sunlit
Object was in daylight at epoch
Visualization orbit readout
Latitude
Unknown
Longitude
Unknown
Altitude
Unknown
Speed
Unknown
Apparent Right ascension
Unknown
Apparent Declination
Unknown
Sunlit
N/A
Visualization observer readout
Local Sidereal Time
16:14:39
Azimuth
Unknown
Elevation
Unknown
Doppler factor
Unknown
Orbital elements
Apogee altitude
159.639 km
Perigee altitude
147.23 km
Semi-major axis
6,531.571 km
Eccentricity
0.00095
Inclination
53.0048°
RAAN
205.4793°
Arg. of periapsis
225.9018°
True anomaly
134.20297°
Mean anomaly
134.1249°
Eccentric anomaly
134.16394°
Mean motion
4.11166 °/min
Orbital period
87.56 mins
BSTAR
0.00032197
Loading maneuver chart data...
Computing Atmospheric mass density...

Documentation

Showing up to 5 results
|